,,,PA_Meas_PMT16A,,PR_Meas_QMR101_102,,RH_Meas_QMH101,,SR_Meas_QMS101,,TA_Meas_QMH101,,GenWind,,GenWind,
date,time,status,PA,status,PR,status,RH,status,SR,status,TA,status,DirAvg,status,SpdAvg,
2011-06-29, 00:00:04,VALID,999.907,VALID,0,VALID,83.613,VALID,0,VALID,22.4899,VALID,43,VALID,0.743359,
2011-06-29, 00:01:04,VALID,999.908,VALID,0,VALID,83.5138,VALID,0,VALID,22.5306,VALID,22,VALID,0.78125,
2011-06-29, 00:02:04,VALID,999.922,VALID,0,VALID,83.6054,VALID,0,VALID,22.5501,VALID,14,VALID,0.899609,
2011-06-29, 00:03:04,VALID,999.905,VALID,0,VALID,83.7198,VALID,0,VALID,22.5306,VALID,14,VALID,0.771875,
2011-06-29, 00:04:04,VALID,999.942,VALID,0,VALID,83.7046,VALID,0,VALID,22.4916,VALID,15,VALID,0.485938,
2011-06-29, 00:05:04,VALID,999.91,VALID,0,VALID,83.9334,VALID,0,VALID,22.3941,VALID,15,VALID,0.385547,
2011-06-29, 00:06:04,VALID,999.909,VALID,0,VALID,84.2997,VALID,0,VALID,22.3161,VALID,31,VALID,0.688672,
2011-06-29, 00:07:04,VALID,999.871,VALID,0,VALID,84.91,VALID,0,VALID,22.2364,VALID,36,VALID,0.639844,
2011-06-29, 00:08:04,VALID,999.839,VALID,0,VALID,85.5662,VALID,0,VALID,22.1974,VALID,44,VALID,1.58867,
2011-06-29, 00:09:04,VALID,999.856,VALID,0,VALID,86.0316,VALID,0,VALID,22.1795,VALID,45,VALID,1.31211,
2011-06-29, 00:10:04,VALID,999.807,VALID,0,VALID,86.0316,VALID,0,VALID,22.1389,VALID,23,VALID,0.945313,
2011-06-29, 00:11:04,VALID,999.781,VALID,0,VALID,86.291,VALID,0,VALID,22.121,VALID,17,VALID,0.927344,
2011-06-29, 00:12:04,VALID,999.772,VALID,0,VALID,86.3597,VALID,0,VALID,22.1015,VALID,356,VALID,0.110937,
2011-06-29, 00:13:04,VALID,999.744,VALID,0,VALID,86.3978,VALID,0,VALID,22.043,VALID,356,VALID,0,
2011-06-29, 00:14:04,VALID,999.752,VALID,0,VALID,86.6191,VALID,0,VALID,22.0235,VALID,356,VALID,0,
2011-06-29, 00:15:04,VALID,999.785,VALID,0,VALID,86.6572,VALID,0,VALID,22.0235,VALID,68,VALID,0.553125,
2011-06-29, 00:16:04,VALID,999.756,VALID,0,VALID,86.4589,VALID,0,VALID,22.004,VALID,99,VALID,0,
2011-06-29, 00:17:04,VALID,999.793,VALID,0,VALID,86.3444,VALID,0,VALID,22.004,VALID,99,VALID,0.43125,
2011-06-29, 00:18:04,VALID,999.796,VALID,0,VALID,86.3139,VALID,0,VALID,22.0625,VALID,106,VALID,0.428125,
2011-06-29, 00:19:04,VALID,999.796,VALID,0,VALID,86.3215,VALID,0,VALID,22.0998,VALID,132,VALID,0.760938,
2011-06-29, 00:20:04,VALID,999.782,VALID,0,VALID,86.1308,VALID,0,VALID,22.1389,VALID,151,VALID,0,
2011-06-29, 00:21:04,VALID,999.79,VALID,0,VALID,86.1613,VALID,0.112286,VALID,22.16,VALID,151,VALID,0.102734,
2011-06-29, 00:22:04,VALID,999.83,VALID,0,VALID,86.0697,VALID,0,VALID,22.1974,VALID,183,VALID,0.351953,
2011-06-29, 00:23:04,VALID,999.787,VALID,0,VALID,85.7874,VALID,0,VALID,22.2559,VALID,183,VALID,0,
2011-06-29, 00:24:04,VALID,999.773,VALID,0,VALID,85.6806,VALID,0.112286,VALID,22.2559,VALID,183,VALID,0,
2011-06-29, 00:25:04,VALID,999.776,VALID,0,VALID,85.5357,VALID,0,VALID,22.2771,VALID,183,VALID,0.00273437,
2011-06-29, 00:26:04,VALID,999.745,VALID,0,VALID,85.5433,VALID,0,VALID,22.2559,VALID,176,VALID,0.219922,
2011-06-29, 00:27:04,VALID,999.719,VALID,0,VALID,85.5586,VALID,0,VALID,22.2754,VALID,147,VALID,0.284375,
2011-06-29, 00:28:04,VALID,999.711,VALID,0,VALID,85.261,VALID,0,VALID,22.3339,VALID,147,VALID,0.545313,
2011-06-29, 00:29:04,VALID,999.695,VALID,0,VALID,84.6049,VALID,0,VALID,22.4331,VALID,147,VALID,0.823438,
2011-06-29, 00:30:04,VALID,999.662,VALID,0,VALID,83.9029,VALID,0.112286,VALID,22.5094,VALID,147,VALID,0.65625,
2011-06-29, 00:31:04,VALID,999.648,VALID,0,VALID,83.3765,VALID,0,VALID,22.6282,VALID,147,VALID,0.393359,
2011-06-29, 00:32:04,VALID,999.645,VALID,0,VALID,83.2849,VALID,0,VALID,22.7079,VALID,147,VALID,0.761719,
2011-06-29, 00:33:04,VALID,999.644,VALID,0,VALID,83.201,VALID,0,VALID,22.6867,VALID,103,VALID,1.08477,
2011-06-29, 00:34:04,VALID,999.628,VALID,0,VALID,83.7427,VALID,0,VALID,22.6087,VALID,92,VALID,1.23711,
2011-06-29, 00:35:04,VALID,999.63,VALID,0,VALID,84.1318,VALID,0,VALID,22.5128,VALID,92,VALID,0.823438,
2011-06-29, 00:36:04,VALID,999.629,VALID,0,VALID,84.6888,VALID,0,VALID,22.4348,VALID,106,VALID,0.634766,
2011-06-29, 00:37:04,VALID,999.629,VALID,0,VALID,85.1313,VALID,0,VALID,22.3356,VALID,106,VALID,0.266016,
2011-06-29, 00:38:04,VALID,999.602,VALID,0,VALID,85.3831,VALID,0,VALID,22.2983,VALID,106,VALID,0.29375,
2011-06-29, 00:39:04,VALID,999.636,VALID,0,VALID,85.9095,VALID,0,VALID,22.2397,VALID,106,VALID,0.436719,
2011-06-29, 00:40:04,VALID,999.605,VALID,0,VALID,86.4894,VALID,0,VALID,22.1405,VALID,9,VALID,1.0375,
2011-06-29, 00:41:04,VALID,999.627,VALID,0,VALID,86.8327,VALID,0,VALID,22.082,VALID,3,VALID,1.02617,
2011-06-29, 00:42:04,VALID,999.637,VALID,0,VALID,86.6954,VALID,0,VALID,22.0252,VALID,4,VALID,1.42656,
2011-06-29, 00:43:04,VALID,999.611,VALID,0,VALID,87.1684,VALID,0,VALID,21.9065,VALID,5,VALID,1.36719,
2011-06-29, 00:44:04,VALID,999.612,VALID,0,VALID,87.794,VALID,0,VALID,21.8301,VALID,8,VALID,1.49102,
2011-06-29, 00:45:04,VALID,999.64,VALID,0,VALID,88.3052,VALID,0,VALID,21.7505,VALID,358,VALID,1.40039,
2011-06-29, 00:46:04,VALID,999.621,VALID,0,VALID,88.6409,VALID,0,VALID,21.7521,VALID,351,VALID,1.17031,
2011-06-29, 00:47:04,VALID,999.614,VALID,0,VALID,88.6409,VALID,0,VALID,21.77,VALID,351,VALID,1.04141,
2011-06-29, 00:48:04,VALID,999.577,VALID,0,VALID,88.4273,VALID,0,VALID,21.809,VALID,351,VALID,1.02891,
2011-06-29, 00:49:04,VALID,999.569,VALID,0,VALID,88.1908,VALID,0.112286,VALID,21.848,VALID,351,VALID,0.946484,
2011-06-29, 00:50:04,VALID,999.577,VALID,0,VALID,87.8322,VALID,0,VALID,21.8853,VALID,351,VALID,0.755859,
2011-06-29, 00:51:04,VALID,999.547,VALID,0,VALID,87.4507,VALID,0,VALID,21.9243,VALID,351,VALID,0.655469,
2011-06-29, 00:52:04,VALID,999.523,VALID,0,VALID,87.115,VALID,0.112286,VALID,21.9438,VALID,351,VALID,0.390625,
2011-06-29, 00:53:04,VALID,999.553,VALID,0,VALID,87.0463,VALID,0.112286,VALID,21.9438,VALID,351,VALID,0.392578,
2011-06-29, 00:54:04,VALID,999.541,VALID,0,VALID,87.0006,VALID,0.112286,VALID,21.9633,VALID,351,VALID,0.480078,
2011-06-29, 00:55:04,VALID,999.531,VALID,0,VALID,86.8403,VALID,0,VALID,21.965,VALID,351,VALID,0.487891,
2011-06-29, 00:56:04,VALID,999.556,VALID,0,VALID,86.5809,VALID,0,VALID,21.9438,VALID,13,VALID,1.16953,
2011-06-29, 00:57:04,VALID,999.581,VALID,0,VALID,86.436,VALID,0.112286,VALID,21.9438,VALID,23,VALID,1.08008,
2011-06-29, 00:58:04,VALID,999.567,VALID,0,VALID,86.4589,VALID,0,VALID,21.9243,VALID,37,VALID,1.67422,
2011-06-29, 00:59:04,VALID,999.526,VALID,0,VALID,86.5886,VALID,0.112286,VALID,21.9243,VALID,37,VALID,1.79648,
2011-06-29, 01:00:04,VALID,999.561,VALID,0,VALID,86.6801,VALID,0,VALID,21.9455,VALID,33,VALID,1.44062,
2011-06-29, 01:01:04,VALID,999.544,VALID,0,VALID,86.7259,VALID,0,VALID,21.926,VALID,33,VALID,1.22695,
2011-06-29, 01:02:04,VALID,999.529,VALID,0,VALID,86.8098,VALID,0.112286,VALID,21.9065,VALID,33,VALID,1.32539,
2011-06-29, 01:03:04,VALID,999.519,VALID,0,VALID,87.0006,VALID,0,VALID,21.887,VALID,38,VALID,1.37422,
2011-06-29, 01:04:04,VALID,999.521,VALID,0,VALID,87.0311,VALID,0.112286,VALID,21.8463,VALID,32,VALID,1.41055,
2011-06-29, 01:05:04,VALID,999.536,VALID,0,VALID,87.1379,VALID,0,VALID,21.8268,VALID,36,VALID,1.46406,
2011-06-29, 01:06:04,VALID,999.559,VALID,0,VALID,87.2523,VALID,0,VALID,21.8073,VALID,25,VALID,1.69766,
2011-06-29, 01:07:04,VALID,999.54,VALID,0,VALID,87.2676,VALID,0,VALID,21.7878,VALID,26,VALID,1.15664,
2011-06-29, 01:08:04,VALID,999.537,VALID,0,VALID,87.4126,VALID,0.112286,VALID,21.7293,VALID,23,VALID,1.21328,
2011-06-29, 01:09:04,VALID,999.534,VALID,0,VALID,87.672,VALID,0.112286,VALID,21.6903,VALID,24,VALID,0.890625,
2011-06-29, 01:10:04,VALID,999.526,VALID,0,VALID,87.939,VALID,0.112286,VALID,21.653,VALID,29,VALID,0.983984,
2011-06-29, 01:11:04,VALID,999.549,VALID,0,VALID,88.2671,VALID,0,VALID,21.614,VALID,29,VALID,1.56875,
2011-06-29, 01:12:04,VALID,999.517,VALID,0,VALID,88.3815,VALID,0,VALID,21.5945,VALID,29,VALID,1.49258,
2011-06-29, 01:13:04,VALID,999.504,VALID,0,VALID,88.3357,VALID,0,VALID,21.5928,VALID,30,VALID,1.45,
2011-06-29, 01:14:04,VALID,999.526,VALID,0,VALID,88.351,VALID,0.112286,VALID,21.5928,VALID,46,VALID,1.26172,
2011-06-29, 01:15:04,VALID,999.534,VALID,0,VALID,88.3357,VALID,0,VALID,21.5928,VALID,30,VALID,1.02227,
2011-06-29, 01:16:04,VALID,999.515,VALID,0,VALID,88.2137,VALID,0,VALID,21.5961,VALID,30,VALID,0.661719,
2011-06-29, 01:17:04,VALID,999.517,VALID,0,VALID,88.1145,VALID,0,VALID,21.5766,VALID,30,VALID,0.625,
2011-06-29, 01:18:04,VALID,999.503,VALID,0,VALID,88.2137,VALID,0,VALID,21.5165,VALID,50,VALID,1.15273,
2011-06-29, 01:19:04,VALID,999.491,VALID,0,VALID,88.3586,VALID,0,VALID,21.5376,VALID,52,VALID,1.39102,
2011-06-29, 01:20:04,VALID,999.488,VALID,0,VALID,88.3815,VALID,0,VALID,21.575,VALID,50,VALID,1.375,
2011-06-29, 01:21:04,VALID,999.513,VALID,0,VALID,88.3586,VALID,0,VALID,21.5766,VALID,50,VALID,1.29062,
2011-06-29, 01:22:04,VALID,999.467,VALID,0,VALID,88.3663,VALID,0,VALID,21.5961,VALID,51,VALID,1.19297,
2011-06-29, 01:23:04,VALID,999.488,VALID,0,VALID,88.2366,VALID,0,VALID,21.6351,VALID,50,VALID,1.12539,
2011-06-29, 01:24:04,VALID,999.495,VALID,0,VALID,88.0458,VALID,0,VALID,21.6741,VALID,63,VALID,0.816016,
2011-06-29, 01:25:04,VALID,999.458,VALID,0,VALID,88.1145,VALID,0,VALID,21.6741,VALID,63,VALID,1.01211,
2011-06-29, 01:26:04,VALID,999.455,VALID,0,VALID,88.1145,VALID,0,VALID,21.6936,VALID,63,VALID,1.06289,
2011-06-29, 01:27:04,VALID,999.446,VALID,0,VALID,87.939,VALID,0,VALID,21.7326,VALID,63,VALID,0.868359,
2011-06-29, 01:28:04,VALID,999.404,VALID,0,VALID,87.7711,VALID,0,VALID,21.7716,VALID,63,VALID,0.929297,
2011-06-29, 01:29:04,VALID,999.401,VALID,0,VALID,87.7711,VALID,0,VALID,21.7505,VALID,63,VALID,0.799609,
2011-06-29, 01:30:04,VALID,999.416,VALID,0,VALID,87.6338,VALID,0,VALID,21.7521,VALID,63,VALID,0.806641,
2011-06-29, 01:31:04,VALID,999.36,VALID,0,VALID,87.8474,VALID,0,VALID,21.7131,VALID,63,VALID,1.01836,
2011-06-29, 01:32:04,VALID,999.372,VALID,0,VALID,88.1221,VALID,0,VALID,21.653,VALID,63,VALID,0.995313,
2011-06-29, 01:33:04,VALID,999.339,VALID,0,VALID,88.3281,VALID,0,VALID,21.6351,VALID,63,VALID,0.987109,
2011-06-29, 01:34:04,VALID,999.339,VALID,0,VALID,88.4349,VALID,0,VALID,21.5945,VALID,63,VALID,0.876172,
2011-06-29, 01:35:04,VALID,999.343,VALID,0,VALID,88.763,VALID,0,VALID,21.5766,VALID,54,VALID,1.08398,
2011-06-29, 01:36:04,VALID,999.349,VALID,0,VALID,89.0911,VALID,0,VALID,21.5555,VALID,44,VALID,1.11211,
2011-06-29, 01:37:04,VALID,999.359,VALID,0,VALID,89.0529,VALID,0,VALID,21.5766,VALID,31,VALID,1.2168,
2011-06-29, 01:38:04,VALID,999.291,VALID,0,VALID,88.8851,VALID,0,VALID,21.5376,VALID,15,VALID,1.31016,
2011-06-29, 01:39:04,VALID,999.292,VALID,0,VALID,88.9614,VALID,0,VALID,21.4791,VALID,9,VALID,1.68711,
2011-06-29, 01:40:04,VALID,999.291,VALID,0,VALID,89.3123,VALID,0,VALID,21.4791,VALID,4,VALID,1.43242,
2011-06-29, 01:41:04,VALID,999.3,VALID,0,VALID,89.4191,VALID,0,VALID,21.5376,VALID,4,VALID,1.44414,
2011-06-29, 01:42:04,VALID,999.314,VALID,0,VALID,89.2208,VALID,0,VALID,21.536,VALID,356,VALID,1.20703,
2011-06-29, 01:43:04,VALID,999.3,VALID,0,VALID,89.03,VALID,0,VALID,21.5766,VALID,4,VALID,1.11563,
2011-06-29, 01:44:04,VALID,999.286,VALID,0,VALID,88.9614,VALID,0,VALID,21.5766,VALID,4,VALID,1.33711,
2011-06-29, 01:45:04,VALID,999.27,VALID,0,VALID,88.8546,VALID,0,VALID,21.5571,VALID,4,VALID,1.33633,
2011-06-29, 01:46:04,VALID,999.299,VALID,0,VALID,88.8393,VALID,0,VALID,21.536,VALID,16,VALID,1.61406,
2011-06-29, 01:47:04,VALID,999.271,VALID,0,VALID,88.7935,VALID,0,VALID,21.497,VALID,19,VALID,1.50391,
2011-06-29, 01:48:04,VALID,999.266,VALID,0,VALID,88.8851,VALID,0,VALID,21.497,VALID,22,VALID,1.60781,
2011-06-29, 01:49:04,VALID,999.265,VALID,0,VALID,88.9309,VALID,0,VALID,21.5376,VALID,22,VALID,1.57344,
2011-06-29, 01:50:04,VALID,999.254,VALID,0,VALID,88.8469,VALID,0,VALID,21.5376,VALID,22,VALID,1.48398,
2011-06-29, 01:51:04,VALID,999.251,VALID,0,VALID,88.7477,VALID,0,VALID,21.5165,VALID,19,VALID,1.24805,
2011-06-29, 01:52:04,VALID,999.253,VALID,0,VALID,88.7706,VALID,0,VALID,21.5571,VALID,357,VALID,1.15117,
2011-06-29, 01:53:04,VALID,999.247,VALID,0,VALID,88.8851,VALID,0,VALID,21.5555,VALID,351,VALID,0.910547,
2011-06-29, 01:54:04,VALID,999.226,VALID,0,VALID,88.8622,VALID,0,VALID,21.6156,VALID,350,VALID,0.880469,
2011-06-29, 01:55:04,VALID,999.228,VALID,0,VALID,88.763,VALID,0,VALID,21.614,VALID,350,VALID,0.660156,
2011-06-29, 01:56:04,VALID,999.217,VALID,0,VALID,88.7096,VALID,0,VALID,21.6351,VALID,350,VALID,0.526953,
2011-06-29, 01:57:04,VALID,999.199,VALID,0,VALID,88.618,VALID,0,VALID,21.6546,VALID,350,VALID,0.7125,
2011-06-29, 01:58:04,VALID,999.2,VALID,0,VALID,88.5265,VALID,0,VALID,21.6741,VALID,357,VALID,0.830859,
2011-06-29, 01:59:04,VALID,999.201,VALID,0,VALID,88.412,VALID,0,VALID,21.7131,VALID,13,VALID,0.705859,
2011-06-29, 02:00:04,VALID,999.177,VALID,0,VALID,88.1603,VALID,0,VALID,21.7716,VALID,13,VALID,0.650781,
2011-06-29, 02:01:04,VALID,999.195,VALID,0,VALID,87.9314,VALID,0,VALID,21.8106,VALID,13,VALID,0.605469,
2011-06-29, 02:02:04,VALID,999.196,VALID,0,VALID,87.7483,VALID,0,VALID,21.8496,VALID,13,VALID,0.609375,
2011-06-29, 02:03:04,VALID,999.195,VALID,0,VALID,87.5346,VALID,0,VALID,21.8887,VALID,36,VALID,0.825781,
2011-06-29, 02:04:04,VALID,999.185,VALID,0,VALID,87.2981,VALID,0,VALID,21.9082,VALID,50,VALID,0.785937,
2011-06-29, 02:05:04,VALID,999.19,VALID,0,VALID,87.1074,VALID,0,VALID,21.9277,VALID,50,VALID,0.898438,
2011-06-29, 02:06:04,VALID,999.172,VALID,0,VALID,87.115,VALID,0,VALID,21.9065,VALID,50,VALID,0.920703,
2011-06-29, 02:07:04,VALID,999.172,VALID,0,VALID,87.1837,VALID,0,VALID,21.926,VALID,50,VALID,0.838672,
2011-06-29, 02:08:04,VALID,999.163,VALID,0,VALID,86.9777,VALID,0,VALID,21.9472,VALID,35,VALID,0.946094,
2011-06-29, 02:09:04,VALID,999.146,VALID,0,VALID,87.1074,VALID,0,VALID,21.887,VALID,33,VALID,1.00117,
2011-06-29, 02:10:04,VALID,999.113,VALID,0,VALID,87.3592,VALID,0,VALID,21.8301,VALID,33,VALID,1.01836,
2011-06-29, 02:11:04,VALID,999.097,VALID,0,VALID,87.5957,VALID,0,VALID,21.77,VALID,33,VALID,0.927344,
2011-06-29, 02:12:04,VALID,999.089,VALID,0,VALID,87.8856,VALID,0,VALID,21.7326,VALID,33,VALID,1.02266,
2011-06-29, 02:13:04,VALID,999.098,VALID,0,VALID,87.9848,VALID,0,VALID,21.6741,VALID,33,VALID,0.887891,
2011-06-29, 02:14:04,VALID,999.06,VALID,0,VALID,88.0077,VALID,0,VALID,21.6351,VALID,33,VALID,0.725,
2011-06-29, 02:15:04,VALID,999.069,VALID,0,VALID,88.2671,VALID,0,VALID,21.536,VALID,33,VALID,0.616406,
2011-06-29, 02:16:04,VALID,999.05,VALID,0,VALID,88.5951,VALID,0,VALID,21.5165,VALID,40,VALID,0.692187,
2011-06-29, 02:17:04,VALID,999.031,VALID,0,VALID,88.824,VALID,0,VALID,21.458,VALID,40,VALID,0.461719,
2011-06-29, 02:18:04,VALID,999.057,VALID,0,VALID,88.8774,VALID,0,VALID,21.419,VALID,40,VALID,0.184766,
2011-06-29, 02:19:04,VALID,999.044,VALID,0,VALID,89.0148,VALID,0,VALID,21.38,VALID,40,VALID,0.480859,
2011-06-29, 02:20:04,VALID,999.057,VALID,0,VALID,89.3352,VALID,0,VALID,21.3605,VALID,88,VALID,0.709375,
2011-06-29, 02:21:04,VALID,999.072,VALID,0,VALID,89.732,VALID,0,VALID,21.38,VALID,115,VALID,0.745313,
2011-06-29, 02:22:04,VALID,999.063,VALID,0,VALID,89.8998,VALID,0,VALID,21.458,VALID,115,VALID,0.671484,
2011-06-29, 02:23:04,VALID,999.043,VALID,0,VALID,89.7167,VALID,0,VALID,21.536,VALID,115,VALID,0.613281,
2011-06-29, 02:24:04,VALID,999.029,VALID,0,VALID,89.4802,VALID,0,VALID,21.5945,VALID,115,VALID,0.625391,
2011-06-29, 02:25:04,VALID,999.047,VALID,0,VALID,89.2818,VALID,0,VALID,21.6546,VALID,115,VALID,0.742578,
2011-06-29, 02:26:04,VALID,999.01,VALID,0,VALID,89.1292,VALID,0,VALID,21.6725,VALID,115,VALID,0.825391,
2011-06-29, 02:27:04,VALID,999.023,VALID,0,VALID,88.8546,VALID,0,VALID,21.7131,VALID,115,VALID,1.13086,
2011-06-29, 02:28:04,VALID,998.984,VALID,0,VALID,88.5951,VALID,0,VALID,21.7326,VALID,118,VALID,1.20625,
2011-06-29, 02:29:04,VALID,998.994,VALID,0,VALID,88.1679,VALID,0,VALID,21.7521,VALID,118,VALID,1.03008,
2011-06-29, 02:30:04,VALID,999.003,VALID,0,VALID,88.1832,VALID,0,VALID,21.77,VALID,118,VALID,1.1832,
2011-06-29, 02:31:04,VALID,999.001,VALID,0,VALID,88.1603,VALID,0,VALID,21.8301,VALID,118,VALID,1.51211,
2011-06-29, 02:32:04,VALID,998.982,VALID,0,VALID,87.9161,VALID,0,VALID,21.8692,VALID,117,VALID,1.32227,
2011-06-29, 02:33:04,VALID,998.966,VALID,0,VALID,87.7635,VALID,0,VALID,21.9082,VALID,118,VALID,1.34063,
2011-06-29, 02:34:04,VALID,998.959,VALID,0,VALID,87.6643,VALID,0,VALID,21.9065,VALID,122,VALID,1.16641,
2011-06-29, 02:35:04,VALID,998.966,VALID,0,VALID,87.3897,VALID,0,VALID,21.9472,VALID,138,VALID,1.06367,
2011-06-29, 02:36:04,VALID,998.968,VALID,0,VALID,87.1913,VALID,0,VALID,21.9455,VALID,138,VALID,1.26172,
2011-06-29, 02:37:04,VALID,998.953,VALID,0,VALID,87.0463,VALID,0,VALID,21.9862,VALID,138,VALID,1.48711,
2011-06-29, 02:38:04,VALID,998.949,VALID,0,VALID,86.7259,VALID,0,VALID,22.0252,VALID,138,VALID,1.07109,
2011-06-29, 02:39:04,VALID,998.945,VALID,0,VALID,86.4512,VALID,0,VALID,22.0642,VALID,138,VALID,0.870313,
2011-06-29, 02:40:04,VALID,998.946,VALID,0,VALID,86.3673,VALID,0,VALID,22.043,VALID,138,VALID,0.985547,
2011-06-29, 02:41:04,VALID,998.994,VALID,0,VALID,86.1918,VALID,0,VALID,22.082,VALID,139,VALID,1.15781,
2011-06-29, 02:42:04,VALID,998.987,VALID,0,VALID,85.8256,VALID,0,VALID,22.1617,VALID,135,VALID,1.28281,
2011-06-29, 02:43:04,VALID,998.982,VALID,0,VALID,85.5509,VALID,0,VALID,22.2007,VALID,135,VALID,1.10273,
2011-06-29, 02:44:04,VALID,998.999,VALID,0,VALID,85.406,VALID,0,VALID,22.2397,VALID,135,VALID,0.944531,
2011-06-29, 02:45:04,VALID,999.026,VALID,0,VALID,85.2992,VALID,0,VALID,22.2592,VALID,135,VALID,0.887891,
2011-06-29, 02:46:04,VALID,999.005,VALID,0,VALID,85.2686,VALID,0,VALID,22.2983,VALID,139,VALID,1.14766,
2011-06-29, 02:47:04,VALID,999,VALID,0,VALID,85.1389,VALID,0,VALID,22.3178,VALID,141,VALID,1.11367,
2011-06-29, 02:48:04,VALID,998.966,VALID,0,VALID,84.9558,VALID,0,VALID,22.3356,VALID,140,VALID,1.07383,
2011-06-29, 02:49:04,VALID,999.016,VALID,0,VALID,84.9177,VALID,0,VALID,22.3763,VALID,139,VALID,0.895312,
2011-06-29, 02:50:04,VALID,998.995,VALID,0,VALID,84.8643,VALID,0,VALID,22.3568,VALID,139,VALID,0.878125,
2011-06-29, 02:51:04,VALID,998.991,VALID,0,VALID,84.9329,VALID,0,VALID,22.3356,VALID,139,VALID,0.793359,
2011-06-29, 02:52:04,VALID,998.999,VALID,0,VALID,84.9711,VALID,0,VALID,22.3356,VALID,139,VALID,0.557031,
2011-06-29, 02:53:04,VALID,999.008,VALID,0,VALID,84.8261,VALID,0,VALID,22.3763,VALID,139,VALID,0.575,
2011-06-29, 02:54:04,VALID,998.991,VALID,0,VALID,84.643,VALID,0,VALID,22.4153,VALID,139,VALID,0.626172,
2011-06-29, 02:55:04,VALID,998.981,VALID,0,VALID,84.4217,VALID,0,VALID,22.4348,VALID,139,VALID,0.344141,
2011-06-29, 02:56:04,VALID,998.979,VALID,0,VALID,84.498,VALID,0,VALID,22.3746,VALID,139,VALID,0.303906,
2011-06-29, 02:57:04,VALID,998.977,VALID,0,VALID,84.788,VALID,0,VALID,22.3373,VALID,139,VALID,0.4875,
2011-06-29, 02:58:04,VALID,998.974,VALID,0,VALID,85.3297,VALID,0,VALID,22.3178,VALID,139,VALID,0.418359,
2011-06-29, 02:59:04,VALID,998.978,VALID,0,VALID,85.3678,VALID,0,VALID,22.2983,VALID,139,VALID,0.351953,
2011-06-29, 03:00:04,VALID,998.991,VALID,0,VALID,85.4441,VALID,0,VALID,22.3178,VALID,139,VALID,0.314063,
2011-06-29, 03:01:04,VALID,998.973,VALID,0,VALID,85.2839,VALID,0,VALID,22.2983,VALID,139,VALID,0.192188,
2011-06-29, 03:02:04,VALID,998.969,VALID,0,VALID,85.4212,VALID,0,VALID,22.2592,VALID,139,VALID,0.00117188,
2011-06-29, 03:03:04,VALID,998.947,VALID,0,VALID,85.7493,VALID,0,VALID,22.2202,VALID,139,VALID,0,
2011-06-29, 03:04:04,VALID,998.944,VALID,0,VALID,86.0469,VALID,0,VALID,22.1617,VALID,139,VALID,0,
2011-06-29, 03:05:04,VALID,998.924,VALID,0,VALID,86.3292,VALID,0,VALID,22.1227,VALID,139,VALID,0.238281,
2011-06-29, 03:06:04,VALID,998.929,VALID,0,VALID,86.1689,VALID,0,VALID,22.0837,VALID,139,VALID,0.575391,
2011-06-29, 03:07:04,VALID,998.883,VALID,0,VALID,86.3673,VALID,0,VALID,21.9862,VALID,50,VALID,0.754687,
2011-06-29, 03:08:04,VALID,998.916,VALID,0,VALID,86.8174,VALID,0,VALID,21.8887,VALID,50,VALID,0.602734,
2011-06-29, 03:09:04,VALID,998.907,VALID,0,VALID,87.382,VALID,0,VALID,21.8301,VALID,50,VALID,0.382422,
2011-06-29, 03:10:04,VALID,998.9,VALID,0,VALID,87.2371,VALID,0,VALID,21.7911,VALID,50,VALID,0.369531,
2011-06-29, 03:11:04,VALID,998.898,VALID,0,VALID,87.8169,VALID,0,VALID,21.7521,VALID,50,VALID,0.402344,
2011-06-29, 03:12:04,VALID,998.87,VALID,0,VALID,87.8627,VALID,0,VALID,21.7911,VALID,50,VALID,0.298828,
2011-06-29, 03:13:04,VALID,998.899,VALID,0,VALID,87.5499,VALID,0,VALID,21.8106,VALID,50,VALID,0.212891,
2011-06-29, 03:14:04,VALID,998.891,VALID,0,VALID,87.0387,VALID,0,VALID,21.77,VALID,50,VALID,0,
2011-06-29, 03:15:04,VALID,998.899,VALID,0,VALID,87.1379,VALID,0,VALID,21.7521,VALID,50,VALID,0.153516,
2011-06-29, 03:16:04,VALID,998.913,VALID,0,VALID,87.3897,VALID,0,VALID,21.7326,VALID,50,VALID,0.300391,
2011-06-29, 03:17:04,VALID,998.889,VALID,0,VALID,87.4507,VALID,0,VALID,21.7115,VALID,50,VALID,0.167187,
2011-06-29, 03:18:04,VALID,998.888,VALID,0,VALID,87.4583,VALID,0,VALID,21.6741,VALID,50,VALID,0.0273438,
2011-06-29, 03:19:04,VALID,998.9,VALID,0,VALID,87.6414,VALID,0,VALID,21.6351,VALID,50,VALID,0.5125,
2011-06-29, 03:20:04,VALID,998.895,VALID,0,VALID,88,VALID,0,VALID,21.6546,VALID,84,VALID,0.910547,
2011-06-29, 03:21:04,VALID,998.864,VALID,0,VALID,88.2137,VALID,0,VALID,21.653,VALID,99,VALID,0.920703,
2011-06-29, 03:22:04,VALID,998.88,VALID,0,VALID,88.1374,VALID,0,VALID,21.6725,VALID,99,VALID,1.2125,
2011-06-29, 03:23:04,VALID,998.851,VALID,0,VALID,88.084,VALID,0,VALID,21.6741,VALID,99,VALID,1.26602,
2011-06-29, 03:24:04,VALID,998.826,VALID,0,VALID,88.4044,VALID,0,VALID,21.6351,VALID,99,VALID,1.44102,
2011-06-29, 03:25:04,VALID,998.817,VALID,0,VALID,88.6791,VALID,0,VALID,21.5961,VALID,99,VALID,1.36719,
2011-06-29, 03:26:04,VALID,998.824,VALID,0,VALID,88.9156,VALID,0,VALID,21.4986,VALID,104,VALID,1.32656,
2011-06-29, 03:27:04,VALID,998.802,VALID,0,VALID,89.2894,VALID,0,VALID,21.4401,VALID,104,VALID,1.07969,
2011-06-29, 03:28:04,VALID,998.798,VALID,0,VALID,89.732,VALID,0,VALID,21.3605,VALID,104,VALID,0.859766,
2011-06-29, 03:29:04,VALID,998.809,VALID,0,VALID,90.2584,VALID,0,VALID,21.3621,VALID,101,VALID,0.971094,
2011-06-29, 03:30:04,VALID,998.774,VALID,0,VALID,90.472,VALID,0,VALID,21.3426,VALID,78,VALID,0.634375,
2011-06-29, 03:31:04,VALID,998.782,VALID,0,VALID,90.4339,VALID,0,VALID,21.2841,VALID,67,VALID,0.689062,
2011-06-29, 03:32:04,VALID,998.778,VALID,0,VALID,90.5483,VALID,0,VALID,21.2256,VALID,61,VALID,0.716406,
2011-06-29, 03:33:04,VALID,998.813,VALID,0,VALID,90.7009,VALID,0,VALID,21.2061,VALID,61,VALID,0.583203,
2011-06-29, 03:34:04,VALID,998.815,VALID,0,VALID,90.8764,VALID,0,VALID,21.1866,VALID,61,VALID,0.571875,
2011-06-29, 03:35:04,VALID,998.807,VALID,0,VALID,91.0824,VALID,0,VALID,21.1866,VALID,61,VALID,0.518359,
2011-06-29, 03:36:04,VALID,998.792,VALID,0,VALID,91.3418,VALID,0,VALID,21.2061,VALID,61,VALID,0.454297,
2011-06-29, 03:37:04,VALID,998.828,VALID,0,VALID,91.4791,VALID,0,VALID,21.2256,VALID,61,VALID,0.460938,
2011-06-29, 03:38:04,VALID,998.809,VALID,0,VALID,91.4944,VALID,0,VALID,21.2256,VALID,61,VALID,0,
2011-06-29, 03:39:04,VALID,998.833,VALID,0,VALID,91.38,VALID,0,VALID,21.2256,VALID,61,VALID,0.0046875,
2011-06-29, 03:40:04,VALID,998.838,VALID,0,VALID,91.3342,VALID,0,VALID,21.2061,VALID,61,VALID,0.138281,
2011-06-29, 03:41:04,VALID,998.845,VALID,0,VALID,91.3876,VALID,0,VALID,21.2061,VALID,61,VALID,0.352344,
2011-06-29, 03:42:04,VALID,998.859,VALID,0,VALID,91.4944,VALID,0,VALID,21.2256,VALID,61,VALID,0.391016,
2011-06-29, 03:43:04,VALID,998.869,VALID,0,VALID,91.5173,VALID,0,VALID,21.2646,VALID,61,VALID,0.410156,
2011-06-29, 03:44:04,VALID,998.875,VALID,0,VALID,91.5173,VALID,0,VALID,21.3231,VALID,61,VALID,0.475781,
2011-06-29, 03:45:04,VALID,998.853,VALID,0,VALID,91.4715,VALID,0,VALID,21.3621,VALID,61,VALID,0.665234,
2011-06-29, 03:46:04,VALID,998.849,VALID,0,VALID,91.3952,VALID,0,VALID,21.4206,VALID,61,VALID,0.517578,